Location: Lane
(33.5226°N, 79.8788°W)
Time: 20:23:37
(UTC+00:00)

Explorer 11/Cluster Stage 4 - Pass Details

Date: 05 October 2022
Orbit: 466 x 1247 km, 28.8° (Epoch: 01 December)

Event Time Altitude Azimuth Distance (km) Brightness Sun altitude
Rises 13:15:43 0° 205° (SSW) 3,975 10.2 23.1°
Reaches altitude 10° 13:19:32 10° 187° (S) 3,111 9.9 23.9°
Maximum altitude 13:24:26 18° 149° (SSE) 2,642 10.4 24.8°
Drops below altitude 10° 13:29:28 10° 110° (ESE) 3,210 11.6 25.7°
Sets 13:33:28 0° 93° (E) 4,152 11.3 26.5°
